Home   Weather   Antioch   Past weeks

Flag for USA Past Weather in Antioch, California, USA — Yesterday and Last 2 Weeks

Now
50 °F

Scattered clouds.


Feels Like: 50 °F
Forecast: 39 / 55 °F
Wind: No wind

Location: Buchanan Field

Current Time: Feb 25, 2017 at 10:29:23 am

Latest Report: Feb 25, 2017 at 9:53 am


Visibility: 10 mi

Pressure: 30.13 "Hg

Humidity: 66%

Dew Point: 39 °F

Location of AntiochLocation

Past Weather in Antioch — Graph

°F

Antioch Temperature Yesterday

Maximum temperature yesterday: 56 °F (at 2:53 pm)
Minimum temperature yesterday: 36 °F (at 6:53 am)
Average temperature yesterday: 46 °F

High & Low Weather Summary for the Past Weeks

 TemperatureHumidityPressure
High67 °F (Feb 14, 2:53 pm)100% (Feb 18, 6:21 am)30.24 "Hg (Feb 18, 6:21 am)
Low36 °F (Feb 24, 6:53 am)32% (Feb 12, 11:53 am)29.13 "Hg (Feb 17, 4:53 pm)
Average53 °F76%29.97 "Hg
* Reported Feb 10 8:00 am — Feb 25 8:53 am, Antioch, Weather by CustomWeather, © 2017

Note: Actual official high and low records may vary slightly from our data, if they occured in-between our weather recording intervals... More about our weather records

Advertising

Antioch Weather History for the Previous 24 Hours

Scroll right to see more
 ConditionsComfort  
Time TempWeatherWind HumidityBarometerVisibility
8:53 am
Sat, Feb 25
46 °FSunny.3 mph77%30.14 "Hg10 mi
7:53 am43 °FScattered clouds.No wind86%30.15 "Hg10 mi
6:53 am40 °FScattered clouds.3 mph89%30.14 "Hg10 mi
5:53 am40 °FPassing clouds.5 mph89%30.14 "Hg10 mi
4:53 am42 °FOvercast.No wind85%30.14 "Hg10 mi
3:53 am40 °FPassing clouds.5 mph86%30.15 "Hg10 mi
2:53 am42 °FPassing clouds.3 mph85%30.15 "Hg10 mi
1:53 am42 °FPassing clouds.5 mph82%30.17 "Hg10 mi
12:53 am42 °FPassing clouds.8 mph85%30.17 "Hg10 mi
11:53 pm
Fri, Feb 24
42 °FClear.No wind82%30.18 "Hg10 mi
10:53 pm45 °FClear.5 mph74%30.19 "Hg10 mi
9:53 pm48 °FClear.3 mph66%30.20 "Hg10 mi
8:53 pm46 °FClear.5 mph73%30.19 "Hg10 mi
7:53 pm47 °FPassing clouds.6 mph69%30.18 "Hg10 mi
6:53 pm49 °FClear.8 mph61%30.18 "Hg10 mi
5:53 pm52 °FSunny.9 mph50%30.16 "Hg10 mi
4:53 pm54 °FSunny.9 mph45%30.17 "Hg10 mi
3:53 pm55 °FScattered clouds.9 mph40%30.17 "Hg10 mi
2:53 pm56 °FOvercast.7 mph40%30.17 "Hg10 mi
1:53 pm55 °FScattered clouds.13 mph37%30.18 "Hg10 mi
12:53 pm54 °FScattered clouds.7 mph55%30.21 "Hg10 mi
11:53 am54 °FSunny.7 mph59%30.23 "Hg10 mi
10:53 am52 °FPassing clouds.6 mph64%30.23 "Hg10 mi
Weather by CustomWeather, © 2017

See weather overviewHow to use our weather pages